Regional Weather Roundup
Issued by NWS

Home | Current Version | Previous Version | Text Only | Print | Product List | Glossary Off
Versions: 1 2 3 4 5 6 7 8 9 10 11 12 13 14 15 16 17 18 19 20 21 22 23 24 25 26 27 28 29 30 31 32 33 34 35 36 37 38 39 40 41 42 43 44 45 46 47 48 49 50

000
ASUS43 KOAX 261710
RWRNE

WEATHER ROUNDUP FOR NEBRASKA
NATIONAL WEATHER SERVICE OMAHA NE
1200 PM CDT TUE MAY 26 2015

NOTES: SATELLITE DATA IS BEING USED TO AUGMENT CLOUD COVER ABOVE
       12000 FEET.
       "FAIR" INDICATES FEW OR NO CLOUDS BELOW 12,000 FEET WITH NO
       SIGNIFICANT WEATHER AND/OR OBSTRUCTIONS TO VISIBILITY.

  * THESE STATIONS DO NOT REPORT WEATHER SUCH AS RAIN...SNOW OR FOG.

NEZ001>004-019>022-054>056-261800-
NEBRASKA PANHANDLE

CITY           SKY/WX    TMP DP  RH WIND       PRES   REMARKS
SCOTTSBLUFF    CLOUDY    62  52  69 MISG      30.02S
ALLIANCE       CLOUDY    58  50  75 NE7       30.03R
CHADRON        PTSUNNY   61  53  75 S7        30.02R
KIMBALL          N/A    N/A N/A N/A MISG        N/A
SIDNEY         CLOUDY    62  52  69 N7        30.04R
$$

NEZ057>060-069>072-079>082-261800-
SOUTHWEST NEBRASKA

CITY           SKY/WX    TMP DP  RH WIND       PRES   REMARKS
NORTH PLATTE   PTSUNNY   63  48  58 N12       30.00R
IMPERIAL         N/A     63  52  67 N8        30.02R
LEXINGTON      PTSUNNY   60  52  75 N12       29.97R
MCCOOK         CLOUDY    66  52  60 NW10      29.99R
OGALLALA       CLOUDY    61  51  71 N6        30.02R
$$

NEZ005>010-023>029-035>040-094-261800-
NORTH CENTRAL NEBRASKA

CITY           SKY/WX    TMP DP  RH WIND       PRES   REMARKS
VALENTINE      MOSUNNY   66  47  50 N9        29.97R
AINSWORTH      PTSUNNY   64  51  62 N13G21    29.96S
BROKEN BOW     CLOUDY    64  50  60 N17       29.94R
O`NEILL        CLOUDY    64  50  61 N17       29.91R
ORD            CLOUDY    62  51  67 N16G22    29.90R
THEDFORD       PTSUNNY   64  49  58 N9        29.99R
$$

NEZ041-046>049-061>064-073>077-083>087-261800-
SOUTH CENTRAL NEBRASKA

CITY           SKY/WX    TMP DP  RH WIND       PRES   REMARKS
GRAND ISLAND   CLOUDY    61  53  75 NW14      29.91R
AURORA         CLOUDY    61  58  88 NW15      29.89R
HASTINGS       CLOUDY    62  53  72 NW13      29.92R
HEBRON         CLOUDY    65  55  70 NW13G22   29.88R
HOLDREGE       PTSUNNY   64  50  60 NW14G24   29.95R
KEARNEY *      CLOUDY    61  50  67 NW15      29.94R
YORK           CLOUDY    63  57  82 NW13      29.88R
$$

NEZ011>018-030>034-042>045-261800-
NORTHEAST NEBRASKA

CITY           SKY/WX    TMP DP  RH WIND       PRES   REMARKS
NORFOLK        LGT RAIN  58  56  93 NW14      29.86R
ALBION         CLOUDY    60  53  76 NW12      29.89R
BLAIR          CLOUDY    65  58  77 W5        29.80R
COLUMBUS *     CLOUDY    61  52  72 NW10      29.87R
FREMONT        CLOUDY    65  61  87 W13G20    29.83R
TEKAMAH        CLOUDY    68  61  78 NW9       29.79R
WAYNE          CLOUDY    60  56  89 NW12G17   29.85R
$$

NEZ050>053-065>068-078-088>093-261800-
SOUTHEAST NEBRASKA

CITY           SKY/WX    TMP DP  RH WIND       PRES   REMARKS
LINCOLN        PTSUNNY   67  58  72 NW13      29.83R
OMAHA EPPLEY   CLOUDY    67  60  78 W7        29.80R
BEATRICE       CLOUDY    67  58  73 NW13      29.83R
FALLS CITY     PTSUNNY   69  62  78 W12       29.82R
NEBRASKA CITY  CLOUDY    64  60  86 SW9       29.81S
PLATTSMOUTH    CLOUDY    67  59  75 SW8       29.81R
$$

NEZ044-045-051>053-067-261800-
OMAHA AREA

CITY           SKY/WX    TMP DP  RH WIND       PRES   REMARKS
OMAHA EPPLEY   CLOUDY    67  60  78 W7        29.80R
BLAIR          CLOUDY    65  58  77 W5        29.80R
FREMONT        CLOUDY    65  61  87 W13G20    29.83R
MILLARD        CLOUDY    66  60  81 W6        29.81R
OFFUTT AFB     CLOUDY    66  59  77 W6        29.80R
PLATTSMOUTH    CLOUDY    67  59  75 SW8       29.81R
WAHOO          CLOUDY    66  61  84 NW13      29.81S
$$



USA.gov is the U.S. government's official web portal to all federal, state and local government web resources and services.